When you browse on this site, cookies collect data to enhance your experience and personalize the content and advertising you see.
Visit our Privacy Policy to learn more. By continuing to use the site, you agree to this use of cookies and data.
  • In Czech Republic
  • List of Countries
  • For 7 days
  • Water Temperature
  • Weather Map
  • Weather Widgets
  • user-avatar
    Login

    Hourly Weather Coihaique

    Today, 4 April, Saturday

    Time Temperature Precipitation Wind Pressure Humidity
    00:00 +4°C° 0 mm 3 mps 730 mmHg 95%
    01:00 +3°C° 0 mm 3 mps 730 mmHg 96%
    02:00 +3°C° 0 mm 3 mps 730 mmHg 95%
    03:00 +3°C° 0 mm 3 mps 730 mmHg 95%
    04:00 +3°C° 0 mm 3 mps 730 mmHg 94%
    05:00 +3°C° 0 mm 3 mps 730 mmHg 94%
    06:00 +3°C° 0 mm 3 mps 730 mmHg 94%
    07:00 +3°C° 0 mm 3 mps 730 mmHg 94%
    08:00 +4°C° 0.1 mm 3 mps 730 mmHg 94%
    09:00 +4°C° 0.1 mm 4 mps 730 mmHg 94%
    10:00 +5°C° 0.1 mm 4 mps 729 mmHg 93%
    11:00 +5°C° 0.2 mm 4 mps 729 mmHg 93%
    12:00 +5°C° 0.2 mm 4 mps 728 mmHg 94%
    13:00 +6°C° 0.2 mm 4 mps 728 mmHg 94%
    14:00 +6°C° 0.2 mm 4 mps 727 mmHg 93%
    15:00 +6°C° 0.2 mm 4 mps 727 mmHg 93%
    16:00 +6°C° 0.2 mm 4 mps 727 mmHg 93%
    17:00 +6°C° 0.2 mm 4 mps 726 mmHg 93%
    18:00 +6°C° 0.2 mm 4 mps 726 mmHg 94%
    19:00 +6°C° 0.2 mm 4 mps 725 mmHg 94%
    20:00 +6°C° 0.4 mm 4 mps 725 mmHg 94%
    21:00 +6°C° 0.4 mm 4 mps 724 mmHg 94%
    22:00 +6°C° 0.4 mm 5 mps 724 mmHg 94%
    23:00 +6°C° 1.1 mm 4 mps 723 mmHg 95%

    Tomorrow, 5 April, Sunday

    Time Temperature Precipitation Wind Pressure Humidity
    00:00 +6°C° 1.1 mm 4 mps 722 mmHg 96%
    01:00 +5°C° 1.1 mm 4 mps 721 mmHg 97%
    02:00 +5°C° 3.6 mm 4 mps 722 mmHg 97%
    03:00 +5°C° 3.6 mm 4 mps 722 mmHg 97%
    04:00 +5°C° 3.6 mm 3 mps 722 mmHg 97%
    05:00 +4°C° 0.3 mm 3 mps 723 mmHg 96%
    06:00 +3°C° 0.3 mm 3 mps 725 mmHg 94%
    07:00 +3°C° 0.3 mm 3 mps 726 mmHg 93%
    08:00 +4°C° 0 mm 3 mps 727 mmHg 86%
    09:00 +5°C° 0 mm 4 mps 727 mmHg 79%
    10:00 +6°C° 0 mm 4 mps 728 mmHg 72%
    11:00 +7°C° 0.1 mm 4 mps 729 mmHg 69%
    12:00 +7°C° 0.1 mm 5 mps 730 mmHg 67%
    13:00 +7°C° 0.1 mm 5 mps 730 mmHg 64%
    14:00 +7°C° 0.1 mm 4 mps 731 mmHg 66%
    15:00 +7°C° 0.1 mm 4 mps 732 mmHg 68%
    16:00 +6°C° 0.1 mm 4 mps 732 mmHg 70%
    17:00 +5°C° 0 mm 4 mps 733 mmHg 78%
    18:00 +4°C° 0 mm 3 mps 734 mmHg 85%
    19:00 +3°C° 0 mm 3 mps 735 mmHg 92%
    20:00 +2°C° 0 mm 3 mps 736 mmHg 93%
    21:00 +2°C° 0 mm 3 mps 737 mmHg 94%
    22:00 +3°C° 0 mm 2 mps 737 mmHg 95%
    23:00 +3°C° 0 mm 2 mps 738 mmHg 96%

    Day after tomorrow, 6 April, Monday

    Time Temperature Precipitation Wind Pressure Humidity
    00:00 +2°C° 0 mm 2 mps 738 mmHg 96%
    01:00 +2°C° 0 mm 2 mps 738 mmHg 97%
    02:00 +2°C° 0 mm 2 mps 738 mmHg 97%
    03:00 +2°C° 0 mm 2 mps 739 mmHg 97%
    04:00 +2°C° 0 mm 2 mps 739 mmHg 96%
    05:00 +1°C° 0 mm 3 mps 739 mmHg 96%
    06:00 +1°C° 0 mm 3 mps 739 mmHg 95%
    07:00 +2°C° 0 mm 3 mps 739 mmHg 94%
    08:00 +3°C° 0 mm 3 mps 739 mmHg 87%
    09:00 +5°C° 0 mm 4 mps 739 mmHg 80%
    10:00 +7°C° 0 mm 4 mps 739 mmHg 74%
    11:00 +8°C° 0 mm 4 mps 738 mmHg 72%
    12:00 +8°C° 0 mm 4 mps 738 mmHg 70%
    13:00 +9°C° 0 mm 5 mps 738 mmHg 69%
    14:00 +10°C° 0 mm 4 mps 737 mmHg 71%
    15:00 +8°C° 0 mm 4 mps 737 mmHg 74%
    16:00 +8°C° 0 mm 4 mps 736 mmHg 77%
    17:00 +6°C° 0 mm 4 mps 737 mmHg 82%
    18:00 +5°C° 0 mm 3 mps 737 mmHg 88%
    19:00 +4°C° 0 mm 3 mps 737 mmHg 94%
    20:00 +4°C° 0 mm 3 mps 737 mmHg 94%
    21:00 +4°C° 0 mm 3 mps 738 mmHg 94%
    22:00 +4°C° 0 mm 3 mps 738 mmHg 94%
    23:00 +5°C° 0 mm 2 mps 738 mmHg 95%

    7 April, Tuesday

    Time Temperature Precipitation Wind Pressure Humidity
    00:00 +4°C° 0 mm 2 mps 738 mmHg 95%
    01:00 +4°C° 0 mm 2 mps 738 mmHg 96%
    02:00 +4°C° 0 mm 2 mps 738 mmHg 96%
    03:00 +4°C° 0 mm 2 mps 738 mmHg 96%
    04:00 +4°C° 0 mm 2 mps 738 mmHg 97%
    05:00 +4°C° 0 mm 2 mps 738 mmHg 97%
    06:00 +4°C° 0 mm 2 mps 738 mmHg 96%
    07:00 +6°C° 0 mm 1 mps 738 mmHg 96%
    08:00 +7°C° 0 mm 2 mps 738 mmHg 90%
    09:00 +9°C° 0 mm 2 mps 738 mmHg 84%
    10:00 +12°C° 0 mm 2 mps 738 mmHg 78%
    11:00 +14°C° 0 mm 2 mps 738 mmHg 74%
    12:00 +15°C° 0 mm 2 mps 737 mmHg 70%
    13:00 +16°C° 0 mm 2 mps 737 mmHg 67%
    14:00 +16°C° 0 mm 2 mps 737 mmHg 69%
    15:00 +16°C° 0 mm 2 mps 737 mmHg 72%
    16:00 +15°C° 0 mm 2 mps 736 mmHg 74%
    17:00 +14°C° 0 mm 1 mps 736 mmHg 81%
    18:00 +12°C° 0 mm 1 mps 736 mmHg 87%
    19:00 +10°C° 0 mm 1 mps 736 mmHg 93%
    20:00 +9°C° 0 mm 1 mps 736 mmHg 93%
    21:00 +9°C° 0 mm 1 mps 736 mmHg 93%
    22:00 +8°C° 0 mm 0 mps 736 mmHg 93%
    23:00 +8°C° 0 mm 0 mps 736 mmHg 93%

    8 April, Wednesday

    Time Temperature Precipitation Wind Pressure Humidity
    00:00 +7°C° 0 mm 0 mps 736 mmHg 92%
    01:00 +7°C° 0 mm 0 mps 735 mmHg 92%
    02:00 +7°C° 0 mm 0 mps 735 mmHg 92%
    03:00 +7°C° 0 mm 0 mps 735 mmHg 92%
    04:00 +7°C° 0 mm 0 mps 735 mmHg 92%
    05:00 +7°C° 0 mm 0 mps 734 mmHg 91%
    06:00 +7°C° 0 mm 0 mps 734 mmHg 90%
    07:00 +8°C° 0 mm 0 mps 734 mmHg 89%
    08:00 +10°C° 0 mm 0 mps 734 mmHg 81%
    09:00 +13°C° 0 mm 0 mps 733 mmHg 73%
    10:00 +16°C° 0 mm 0 mps 733 mmHg 65%
    11:00 +17°C° 0 mm 0 mps 733 mmHg 62%
    12:00 +19°C° 0 mm 0 mps 732 mmHg 58%
    13:00 +20°C° 0 mm 0 mps 732 mmHg 55%
    14:00 +20°C° 0 mm 0 mps 732 mmHg 60%
    15:00 +21°C° 0 mm 1 mps 731 mmHg 65%
    16:00 +20°C° 0 mm 1 mps 731 mmHg 70%
    17:00 +19°C° 0 mm 1 mps 731 mmHg 77%
    18:00 +16°C° 0 mm 1 mps 731 mmHg 84%
    19:00 +14°C° 0 mm 1 mps 731 mmHg 90%
    20:00 +13°C° 0 mm 1 mps 731 mmHg 91%
    21:00 +13°C° 0 mm 1 mps 731 mmHg 92%
    22:00 +12°C° 0 mm 1 mps 731 mmHg 93%
    23:00 +12°C° 0 mm 1 mps 731 mmHg 94%

    9 April, Thursday

    Time Temperature Precipitation Wind Pressure Humidity
    00:00 +12°C° 0 mm 1 mps 731 mmHg 94%
    01:00 +11°C° 0 mm 1 mps 730 mmHg 95%
    02:00 +11°C° 0 mm 1 mps 730 mmHg 94%
    03:00 +11°C° 0 mm 1 mps 730 mmHg 93%
    04:00 +10°C° 0 mm 1 mps 730 mmHg 92%
    05:00 +10°C° 0 mm 1 mps 730 mmHg 90%
    06:00 +10°C° 0 mm 1 mps 730 mmHg 88%
    07:00 +10°C° 0 mm 1 mps 730 mmHg 86%
    08:00 +13°C° 0 mm 1 mps 730 mmHg 78%
    09:00 +15°C° 0 mm 1 mps 730 mmHg 70%
    10:00 +18°C° 0 mm 1 mps 730 mmHg 61%
    11:00 +18°C° 0 mm 2 mps 729 mmHg 58%
    12:00 +19°C° 0 mm 2 mps 729 mmHg 55%
    13:00 +20°C° 0 mm 2 mps 729 mmHg 52%
    14:00 +19°C° 0 mm 2 mps 729 mmHg 57%
    15:00 +19°C° 0 mm 2 mps 729 mmHg 62%
    16:00 +18°C° 0 mm 2 mps 729 mmHg 67%
    17:00 +16°C° 0 mm 2 mps 729 mmHg 74%
    18:00 +14°C° 0 mm 2 mps 729 mmHg 80%
    19:00 +13°C° 0 mm 2 mps 729 mmHg 87%
    20:00 +12°C° 0 mm 2 mps 729 mmHg 90%
    21:00 +10°C° 0 mm 2 mps 729 mmHg 92%
    22:00 +10°C° 0 mm 2 mps 729 mmHg 95%
    23:00 +10°C° 0 mm 2 mps 728 mmHg 95%
    Show more